N0MR Weather Reports


time (UTC)temp
F
wind
direction
speed
knots
gust
knots
rain 1hr
in
rain 24hr
in
rain mn
in
humidity
%
barometer
mb
20260831044537 61 144 0.0 0.9 0.00 0.00 0.00 96 1011.4
20260831043536 61 60 0.0 4.3 0.00 0.00 0.00 96 1011.3
20260831042536 61 60 0.0 4.3 0.00 0.00 0.00 96 1011.3
20260831041536 61 155 0.0 1.7 0.00 0.00 0.00 96 1011.3
20260831040537 61 155 0.0 1.7 0.00 0.00 0.00 96 1011.3
20260831035536 61 206 0.0 4.3 0.00 0.00 0.00 96 1011.5
20260831034536 61 206 0.0 4.3 0.00 0.00 0.00 96 1011.5
20260831033536 61 22 0.0 4.3 0.00 0.00 0.00 95 1011.6
20260831032536 61 61 0.0 1.7 0.00 0.00 0.00 95 1011.8
20260831031537 61 61 0.0 1.7 0.00 0.00 0.00 95 1011.8
20260831030536 61 182 0.0 1.7 0.00 0.00 0.00 95 1011.8
20260831025538 61 182 0.0 1.7 0.00 0.00 0.00 95 1011.8
20260831024537 62 226 0.9 0.9 0.00 0.00 0.00 95 1011.4
20260831023538 62 226 0.9 0.9 0.00 0.00 0.00 95 1011.4
20260831022539 62 175 0.0 0.9 0.00 0.00 0.00 94 1011.1
20260831021538 62 175 0.0 0.9 0.00 0.00 0.00 94 1011.1
20260831020537 62 150 0.0 6.1 0.00 0.00 0.00 94 1011.3
20260831015539 62 150 0.0 6.1 0.00 0.00 0.00 94 1011.3
20260831014538 62 316 0.0 4.3 0.00 0.00 0.00 94 1011.0
20260831013539 62 316 0.0 4.3 0.00 0.00 0.00 94 1011.0
20260831012537 62 134 0.0 1.7 0.00 0.00 0.00 94 1010.6
20260831011538 62 134 0.0 1.7 0.00 0.00 0.00 94 1010.6
20260831010537 63 184 0.0 3.5 0.00 0.00 0.00 93 1010.7
20260831005539 63 184 0.0 3.5 0.00 0.00 0.00 93 1010.7
20260831004539 63 126 0.0 1.7 0.00 0.00 0.00 93 1011.3
20260831003538 63 126 0.0 1.7 0.00 0.00 0.00 93 1011.3
20260831002538 63 267 0.0 2.6 0.00 0.00 0.00 93 1011.9
20260831001539 63 273 0.0 2.6 0.00 0.00 0.00 93 1012.0
20260831000538 63 273 0.0 2.6 0.00 0.00 0.00 93 1012.0
20260830235539 64 53 0.0 0.9 0.00 0.00 0.00 92 1011.8
20260830234538 64 53 0.0 0.9 0.00 0.00 0.00 92 1011.8
20260830233538 64 132 0.0 1.7 0.00 0.00 0.00 92 1011.8
20260830232539 64 132 0.0 1.7 0.00 0.00 0.00 92 1011.8
20260830231538 64 167 0.0 1.7 0.00 0.00 0.00 92 1011.8
20260830230540 64 167 0.0 1.7 0.00 0.00 0.00 92 1011.8
20260830225539 64 104 0.0 1.7 0.00 0.00 0.00 92 1011.8
20260830224538 64 104 0.0 1.7 0.00 0.00 0.00 92 1011.8
20260830223540 64 60 0.0 1.7 0.00 0.00 0.00 93 1012.2
20260830222540 64 60 0.0 1.7 0.00 0.00 0.00 93 1012.2
20260830221539 63 114 0.0 4.3 0.00 0.00 0.00 92 1012.1
20260830220540 63 114 0.0 4.3 0.00 0.00 0.00 92 1012.1
20260830215541 64 350 0.0 3.5 0.00 0.00 0.00 91 1012.2
20260830214538 64 350 0.0 3.5 0.00 0.00 0.00 91 1012.2
20260830213539 64 355 0.0 0.9 0.00 0.00 0.00 92 1012.6
20260830212540 64 355 0.0 0.9 0.00 0.00 0.00 92 1012.6
20260830211539 64 169 0.0 6.1 0.00 0.00 0.00 91 1012.5
20260830210539 64 28 0.0 4.3 0.00 0.00 0.00 91 1012.6
20260830205549 64 28 0.0 4.3 0.00 0.00 0.00 91 1012.6
20260830204540 64 335 0.0 0.9 0.00 0.00 0.00 91 1012.6
20260830203539 64 335 0.0 0.9 0.00 0.00 0.00 91 1012.6
20260830202540 64 263 0.0 1.7 0.00 0.00 0.00 91 1012.2
20260830201549 64 263 0.0 1.7 0.00 0.00 0.00 91 1012.2
20260830200540 64 198 0.0 3.5 0.00 0.00 0.00 91 1012.3
20260830195540 64 198 0.0 3.5 0.00 0.00 0.00 91 1012.3
20260830194541 64 57 0.0 1.7 0.00 0.00 0.00 91 1012.4
20260830193540 64 57 0.0 1.7 0.00 0.00 0.00 91 1012.4
20260830192540 64 193 0.0 4.3 0.00 0.00 0.00 91 1012.3
20260830191542 64 193 0.0 4.3 0.00 0.00 0.00 91 1012.3
20260830190541 63 121 0.0 1.7 0.00 0.00 0.00 93 1012.3
20260830185539 63 121 0.0 1.7 0.00 0.00 0.00 93 1012.3
20260830184540 63 132 0.0 4.3 0.00 0.00 0.00 94 1012.1
20260830183541 63 132 0.0 4.3 0.00 0.00 0.00 94 1012.1
20260830182540 62 80 0.0 1.7 0.00 0.00 0.00 94 1012.1
20260830181541 62 80 0.0 1.7 0.00 0.00 0.00 94 1012.1
20260830180540 62 167 0.0 1.7 0.00 0.00 0.00 94 1012.1
20260830175541 62 186 0.0 5.2 0.00 0.00 0.00 94 1012.5
20260830174540 62 186 0.0 5.2 0.00 0.00 0.00 94 1012.5
20260830173541 62 263 0.0 4.3 0.00 0.00 0.00 95 1012.5
20260830172540 62 263 0.0 4.3 0.00 0.00 0.00 95 1012.5
20260830171540 62 187 0.0 4.3 0.00 0.00 0.00 95 1012.7
20260830170541 62 187 0.0 4.3 0.00 0.00 0.00 95 1012.7
20260830165541 62 227 0.0 3.5 0.00 0.00 0.00 96 1012.8
20260830164541 62 227 0.0 3.5 0.00 0.00 0.00 96 1012.8
20260830161541 62 253 0.0 0.9 0.00 0.00 0.00 95 1012.8
20260830160540 62 253 0.0 0.9 0.00 0.00 0.00 95 1012.8
20260830155541 61 195 0.0 1.7 0.00 0.00 0.00 96 1013.0
20260830154542 61 195 0.0 1.7 0.00 0.00 0.00 96 1013.0
20260830153541 61 252 0.0 5.2 0.00 0.00 0.00 96 1012.7
20260830152542 61 252 0.0 5.2 0.00 0.00 0.00 96 1012.7
20260830151542 61 278 0.0 0.9 0.00 0.00 0.00 96 1012.5
20260830150541 61 278 0.0 0.9 0.00 0.00 0.00 96 1012.5
20260830145542 61 305 0.0 1.7 0.00 0.00 0.00 96 1012.2
20260830144542 61 32 0.0 5.2 0.00 0.00 0.00 96 1011.8
20260830143541 61 32 0.0 5.2 0.00 0.00 0.00 96 1011.8
20260830142541 61 71 0.0 4.3 0.00 0.00 0.00 96 1012.0
20260830141543 61 71 0.0 4.3 0.00 0.00 0.00 96 1012.0
20260830140542 61 238 0.0 3.5 0.00 0.00 0.00 96 1012.2
20260830135545 61 238 0.0 3.5 0.00 0.00 0.00 96 1012.2
20260830134542 61 267 0.0 1.7 0.00 0.00 0.00 96 1012.5
20260830133542 61 267 0.0 1.7 0.00 0.00 0.00 96 1012.5
20260830132542 61 317 0.0 0.0 0.00 0.00 0.00 96 1012.8
20260830131542 61 317 0.0 0.0 0.00 0.00 0.00 96 1012.8
20260830130542 61 290 0.0 3.5 0.00 0.00 0.00 96 1012.6
20260830125542 61 290 0.0 3.5 0.00 0.00 0.00 96 1012.6
20260830124542 61 210 0.0 3.5 0.00 0.00 0.00 96 1012.6
20260830123543 61 210 0.0 3.5 0.00 0.00 0.00 96 1012.6
20260830122543 61 280 0.0 1.7 0.00 0.00 0.00 96 1012.4
20260830121542 61 280 0.0 1.7 0.00 0.00 0.00 96 1012.4
20260830120542 61 279 0.0 1.7 0.00 0.00 0.00 96 1011.7
20260830115542 61 279 0.0 1.7 0.00 0.00 0.00 96 1011.7
20260830114542 61 280 0.0 0.0 0.00 0.00 0.00 96 1012.0
20260830113542 61 277 0.0 0.9 0.00 0.00 0.00 96 1012.2
20260830112543 61 277 0.0 0.9 0.00 0.00 0.00 96 1012.2
20260830111542 61 31 0.0 0.9 0.00 0.00 0.00 96 1011.9
20260830110542 61 31 0.0 0.9 0.00 0.00 0.00 96 1011.9
20260830105543 61 346 0.0 0.9 0.00 0.00 0.00 96 1011.7
20260830104543 61 346 0.0 0.9 0.00 0.00 0.00 96 1011.7
20260830103542 61 345 0.0 1.7 0.00 0.00 0.00 96 1011.5
20260830102544 61 345 0.0 1.7 0.00 0.00 0.00 96 1011.5
20260830101544 61 241 0.0 1.7 0.00 0.00 0.00 96 1011.6
20260830100544 61 241 0.0 1.7 0.00 0.00 0.00 96 1011.6
20260830095544 61 241 0.0 0.0 0.00 0.00 0.00 96 1012.0
20260830094543 61 241 0.0 0.0 0.00 0.00 0.00 96 1012.0
20260830093544 61 275 0.0 0.9 0.00 0.00 0.00 96 1011.7
20260830092543 61 275 0.0 0.9 0.00 0.00 0.00 96 1011.7
20260830091544 61 275 0.0 0.0 0.00 0.00 0.00 95 1011.4
20260830090544 61 275 0.0 0.0 0.00 0.00 0.00 95 1011.4
20260830085544 61 267 0.0 0.0 0.00 0.00 0.00 95 1011.8
20260830084543 61 267 0.0 0.0 0.00 0.00 0.00 95 1011.8
20260830083546 61 269 0.0 0.9 0.00 0.00 0.00 95 1011.8
20260830082544 61 269 0.0 0.9 0.00 0.00 0.00 95 1011.8
20260830081544 61 267 0.0 0.0 0.00 0.00 0.00 95 1011.6
20260830080544 61 267 0.0 0.0 0.00 0.00 0.00 95 1011.4
20260830075545 61 267 0.0 0.0 0.00 0.00 0.00 95 1011.4
20260830074544 61 267 0.0 0.0 0.00 0.00 0.00 95 1011.3
20260830073544 61 267 0.0 0.0 0.00 0.00 0.00 95 1011.3
20260830072544 61 267 0.0 0.0 0.00 0.00 0.00 95 1011.4
20260830071547 61 267 0.0 0.0 0.00 0.00 0.00 95 1011.4
20260830070545 61 267 0.0 0.0 0.00 0.00 0.00 94 1011.5
20260830065545 61 267 0.0 0.0 0.00 0.00 0.00 94 1011.5
20260830064544 61 267 0.0 0.0 0.00 0.00 0.00 95 1011.9
20260830063544 61 267 0.0 0.0 0.00 0.00 0.00 95 1011.9
20260830062544 62 267 0.0 0.0 0.00 0.00 0.00 94 1012.2
20260830061545 62 267 0.0 0.0 0.00 0.00 0.00 94 1012.2
20260830060545 62 267 0.0 0.0 0.00 0.00 0.00 94 1012.5
20260830055547 62 267 0.0 0.0 0.00 0.00 0.00 94 1012.5
20260830054544 62 267 0.0 0.0 0.00 0.00 0.00 93 1012.7
20260830053545 62 267 0.0 0.0 0.00 0.00 0.00 93 1012.7
20260830052544 62 267 0.0 0.0 0.00 0.00 0.00 93 1012.7
20260830051544 62 267 0.0 0.0 0.00 0.00 0.00 93 1012.7
20260830050545 62 267 0.0 0.0 0.00 0.00 0.00 93 1012.7
20260830045544 62 267 0.0 0.0 0.00 0.00 0.00 93 1012.9